Location: Unspecified
(52.4292°N, 19.3359°E)
Time: 16:45:16
(UTC+02:00)

Transit 2A Rocket - Pass Details

Date: 21 May 2024
Orbit: 583 x 910 km, 66.7° (Epoch: 22 June)

Event Time Altitude Azimuth Distance (km) Brightness Sun altitude
Rises 06:14:55 0° 237° (WSW) 3,026 7.5 12.4°
Reaches altitude 10° 06:17:12 10° 243° (WSW) 2,162 6.8 12.7°
Maximum altitude 06:22:00 50° 319° (NW) 954 5.5 13.4°
Drops below altitude 10° 06:27:19 10° 35° (NE) 2,389 8.5 14.2°
Sets 06:29:58 0° 40° (NE) 3,376 9.3 14.6°
